Location: Gleizolles
(44.4833°N, 6.7667°E)
Time: 19:55:47
(UTC+00:00)

ISS - Pass Details

Date: 08 December 2021
Orbit: 413 x 422 km, 51.6° (Epoch: 20 January)

Event Time Altitude Azimuth Distance (km) Brightness Sun altitude
Rises 16:51:02 0° 297° (WNW) 2,386 0.7 -10.0°
Reaches altitude 10° 16:53:12 10° 291° (WNW) 1,516 -0.2 -10.4°
Maximum altitude 16:56:28 44° 218° (SW) 599 -2.5 -10.9°
Drops below altitude 10° 16:59:41 10° 145° (SE) 1,501 -1.1 -11.5°
Enters shadow 17:02:57 -4° 137° (SE) 2,820 0.2 -12.0°
